This is the latest recevied weather packets stored in our database for station/object W7JFO-3. If no packets are shown the sender has not sent any weather packets the latest 10 day(s).
| Time | Temp. | Humidity | Pressure | Rain* | Wind** | Luminosity | Snow |
|---|---|---|---|---|---|---|---|
| 1777883507 | 11.67° C | 44% | 1007.1 hPa | 0 mm | - | 0 W/m² | - |
| 1777882607 | 11.67° C | 43% | 1006.9 hPa | 0 mm | - | 0 W/m² | - |
| 1777881707 | 12.22° C | 42% | 1006.7 hPa | 0 mm | - | 0 W/m² | - |
| 1777880807 | 12.78° C | 40% | 1006.4 hPa | 0 mm | - | 0 W/m² | - |
| 1777879907 | 13.33° C | 40% | 1006.3 hPa | 0 mm | - | 0 W/m² | - |
| 1777879007 | 13.33° C | 39% | 1006.2 hPa | 0 mm | - | 0 W/m² | - |
| 1777878107 | 14.44° C | 38% | 1005.9 hPa | 0 mm | - | 0 W/m² | - |
| 1777877207 | 14.44° C | 38% | 1006.2 hPa | 0 mm | - | 0 W/m² | - |
| 1777876307 | 15° C | 39% | 1005.9 hPa | 0 mm | - | 0 W/m² | - |
| 1777875407 | 15° C | 39% | 1006.2 hPa | 0 mm | - | 0 W/m² | - |
| 1777874507 | 16.67° C | 31% | 1005.6 hPa | 0 mm | - | 0 W/m² | - |
| 1777873607 | 16.67° C | 29% | 1005.5 hPa | 0 mm | - | 0 W/m² | - |
| 1777872707 | 16.67° C | 29% | 1005.8 hPa | 0 mm | - | 0 W/m² | - |
| 1777871807 | 17.22° C | 29% | 1005.5 hPa | 0 mm | - | 0 W/m² | - |
| 1777870907 | 17.22° C | 29% | 1005.8 hPa | 0 mm | - | 0 W/m² | - |
| 1777870007 | 17.78° C | 29% | 1005.9 hPa | 0 mm | - | 0 W/m² | - |
| 1777869107 | 17.78° C | 29% | 1005.6 hPa | 0 mm | - | 0 W/m² | - |
| 1777868207 | 17.78° C | 29% | 1006 hPa | 0 mm | - | 0 W/m² | - |
| 1777867307 | 17.78° C | 31% | 1005.6 hPa | 0 mm | - | 0 W/m² | - |
| 1777866407 | 17.78° C | 30% | 1005.5 hPa | 0 mm | - | 0 W/m² | - |
| 1777865507 | 17.78° C | 30% | 1005.8 hPa | 0 mm | - | 0 W/m² | - |
| 1777864607 | 17.78° C | 31% | 1005.4 hPa | 0 mm | - | 0 W/m² | - |
| 1777863707 | 18.33° C | 30% | 1005.5 hPa | 0 mm | - | 0 W/m² | - |
| 1777862807 | 18.89° C | 30% | 1005.7 hPa | 0 mm | - | 7 W/m² | - |
| 1777861907 | 19.44° C | 31% | 1005.8 hPa | 0 mm | - | 18 W/m² | - |
* Rain latest hour (hover to see other rain measurements)
** Current wind speed in m/s (hover to see current wind gust speed)